This is the latest recevied weather packets stored in our database for station/object KG7FOQ-13. If no packets are shown the sender has not sent any weather packets the latest 10 day(s).
| Time | Temp. | Humidity | Pressure | Rain* | Wind** | Luminosity | Snow |
|---|---|---|---|---|---|---|---|
| 1778143672 | 18.89° C | 32% | 1014.8 hPa | 0 mm | - | - | - |
| 1778143370 | 18.89° C | 32% | 1014.4 hPa | 0 mm | - | - | - |
| 1778143070 | 18.33° C | 32% | 1014.4 hPa | 0 mm | - | - | - |
| 1778142769 | 18.33° C | 32% | 1014.4 hPa | 0 mm | - | - | - |
| 1778142469 | 18.33° C | 32% | 1014.4 hPa | 0 mm | - | - | - |
| 1778142168 | 18.33° C | 33% | 1014.4 hPa | 0 mm | - | - | - |
| 1778141868 | 18.33° C | 33% | 1014.4 hPa | 0 mm | - | - | - |
| 1778141567 | 17.78° C | 33% | 1014.5 hPa | 0 mm | - | - | - |
| 1778141267 | 17.78° C | 33% | 1014.4 hPa | 0 mm | - | - | - |
| 1778140966 | 17.78° C | 33% | 1014.4 hPa | 0 mm | - | - | - |
| 1778140666 | 17.78° C | 34% | 1014.4 hPa | 0 mm | - | - | - |
| 1778140365 | 17.78° C | 35% | 1014.5 hPa | 0 mm | - | - | - |
| 1778140065 | 17.22° C | 35% | 1014.5 hPa | 0 mm | - | - | - |
| 1778139764 | 17.22° C | 35% | 1014.7 hPa | 0 mm | - | - | - |
| 1778139464 | 17.78° C | 35% | 1014.7 hPa | 0 mm | - | - | - |
| 1778139163 | 17.78° C | 34% | 1014.7 hPa | 0 mm | - | - | - |
| 1778138862 | 17.78° C | 34% | 1014.7 hPa | 0 mm | - | - | - |
| 1778138562 | 17.22° C | 35% | 1014.8 hPa | 0 mm | - | - | - |
| 1778138261 | 16.11° C | 37% | 1014.9 hPa | 0 mm | - | - | - |
| 1778137961 | 16.67° C | 39% | 1014.9 hPa | 0 mm | - | - | - |
| 1778137661 | 16.11° C | 39% | 1014.9 hPa | 0 mm | - | - | - |
| 1778137397 | 16.11° C | 38% | 1015 hPa | 0 mm | - | - | - |
| 1778137360 | 16.11° C | 38% | 1015 hPa | 0 mm | - | - | - |
| 1778137059 | 16.11° C | 38% | 1015 hPa | 0 mm | - | - | - |
| 1778136759 | 15.56° C | 39% | 1015 hPa | 0 mm | - | - | - |
* Rain latest hour (hover to see other rain measurements)
** Current wind speed in m/s (hover to see current wind gust speed)